Year,Month,Day,Hour,Minute,Value (Times are PST for temperature in C)
2020,01,24,10,29,7.90
2020,01,24,10,30,7.90
2020,01,24,10,31,7.90
2020,01,24,10,32,7.90
2020,01,24,10,33,7.80
2020,01,24,10,34,7.80
2020,01,24,10,35,7.70
2020,01,24,10,36,7.70
2020,01,24,10,37,7.70
2020,01,24,10,38,7.60
2020,01,24,10,39,7.60
2020,01,24,10,40,7.60
2020,01,24,10,41,7.60
2020,01,24,10,42,7.60
2020,01,24,10,43,7.60
2020,01,24,10,44,7.60
2020,01,24,10,45,7.70
2020,01,24,10,46,7.70
2020,01,24,10,47,7.70
2020,01,24,10,48,7.70
2020,01,24,10,49,7.70
2020,01,24,10,50,7.80
2020,01,24,10,51,7.80
2020,01,24,10,52,7.90
2020,01,24,10,53,7.90
2020,01,24,11,08,8.40
2020,01,24,11,09,8.40
2020,01,24,11,12,8.40
2020,01,24,11,13,8.50
2020,01,24,11,14,8.50
2020,01,24,11,15,8.50
2020,01,24,11,16,8.50
2020,01,24,11,17,8.50
2020,01,24,11,18,8.50
2020,01,24,12,27,9.10
2020,01,24,12,28,9.10
2020,01,24,12,29,9.10
2020,01,24,12,30,9.10
2020,01,24,12,31,9.10
2020,01,24,12,33,9.10
2020,01,24,12,34,9.10
2020,01,24,12,35,9.10
2020,01,24,12,36,9.10
2020,01,24,12,37,9.00
2020,01,24,12,38,9.00
2020,01,24,12,39,8.90
2020,01,24,12,40,8.90
2020,01,24,12,41,8.90
2020,01,24,12,42,8.90
2020,01,24,12,43,8.80
2020,01,24,12,44,8.90
2020,01,24,12,45,8.80
2020,01,24,12,46,8.80
2020,01,24,12,47,8.80
2020,01,24,12,48,8.80
2020,01,24,12,49,8.80
2020,01,24,12,50,8.80
2020,01,24,12,51,8.80
2020,01,24,12,52,8.90
2020,01,24,12,53,8.90
2020,01,24,12,54,8.90
2020,01,24,12,55,9.00
2020,01,24,12,56,9.00
2020,01,24,12,57,9.10
2020,01,24,12,58,9.10
2020,01,24,12,59,9.10
2020,01,24,13,00,9.10
2020,01,24,13,01,9.10
2020,01,24,13,02,9.10
2020,01,24,13,03,9.20
2020,01,24,13,04,9.20
2020,01,24,13,05,9.20
2020,01,24,13,06,9.20
2020,01,24,13,07,9.20
2020,01,24,13,08,9.20
2020,01,24,13,09,9.30
2020,01,24,13,10,9.20
2020,01,24,13,11,9.20
2020,01,24,13,12,9.20
2020,01,24,13,13,9.20
2020,01,24,13,14,9.20
2020,01,24,13,15,9.20
2020,01,24,13,16,9.20
2020,01,24,13,17,9.20
2020,01,24,13,18,9.20
2020,01,24,13,19,9.10
2020,01,24,13,20,9.10
2020,01,24,13,21,9.10
2020,01,24,13,22,9.20
2020,01,24,13,23,9.20
2020,01,24,13,24,9.20
2020,01,24,13,25,9.20
2020,01,24,13,26,9.20
2020,01,24,13,27,9.10
2020,01,24,13,28,9.10
2020,01,24,13,29,9.10
2020,01,24,13,30,9.20
2020,01,24,13,31,9.20
2020,01,24,13,32,9.20
2020,01,24,13,33,9.20
2020,01,24,13,34,9.20
2020,01,24,13,35,9.20
2020,01,24,13,36,9.20
2020,01,24,13,37,9.20
2020,01,24,13,38,9.20
2020,01,24,13,39,9.20
2020,01,24,13,40,9.20
2020,01,24,13,41,9.30
2020,01,24,13,42,9.30
2020,01,24,13,43,9.30
2020,01,24,13,44,9.30
2020,01,24,13,45,9.30
2020,01,24,13,46,9.30
2020,01,24,13,47,9.30
2020,01,24,13,48,9.30
2020,01,24,13,49,9.30
2020,01,24,13,50,9.40
2020,01,24,13,51,9.40
2020,01,24,13,52,9.40
2020,01,24,13,53,9.40
2020,01,24,13,54,9.40
2020,01,24,13,55,9.40
2020,01,24,13,56,9.40
2020,01,24,13,57,9.40
2020,01,24,13,58,9.40
2020,01,24,13,59,9.40
2020,01,24,14,00,9.50
2020,01,24,14,01,9.50
2020,01,24,14,02,9.60
2020,01,24,14,03,9.60
2020,01,24,14,04,9.60
2020,01,24,14,05,9.60
2020,01,24,14,06,9.60
2020,01,24,14,07,9.60
2020,01,24,14,08,9.60
2020,01,24,14,09,9.60
2020,01,24,14,10,9.60
2020,01,24,14,11,9.60
2020,01,24,14,12,9.60
2020,01,24,14,13,9.60
2020,01,24,14,14,9.60
2020,01,24,14,15,9.60
2020,01,24,14,16,9.60
2020,01,24,14,17,9.60
2020,01,24,14,18,9.50
2020,01,24,14,19,9.50
2020,01,24,14,20,9.50
2020,01,24,14,21,9.50
2020,01,24,14,22,9.50
2020,01,24,14,23,9.50
2020,01,24,14,24,9.50
2020,01,24,14,25,9.50
2020,01,24,14,26,9.50
2020,01,24,14,27,9.50
2020,01,24,14,28,9.50
2020,01,24,14,29,9.50
2020,01,24,14,30,9.50
2020,01,24,14,31,9.50
2020,01,24,14,32,9.50
2020,01,24,14,33,9.50
2020,01,24,14,34,9.40
2020,01,24,14,35,9.40
2020,01,24,14,36,9.40
2020,01,24,14,37,9.40
2020,01,24,14,38,9.40
2020,01,24,14,39,9.50
2020,01,24,14,40,9.50
2020,01,24,14,41,9.50
2020,01,24,14,42,9.50
2020,01,24,14,43,9.50
2020,01,24,14,44,9.50
2020,01,24,14,45,9.50
2020,01,24,14,46,9.50
2020,01,24,14,47,9.50
2020,01,24,14,48,9.60
2020,01,24,14,49,9.60
2020,01,24,14,50,9.60
2020,01,24,14,51,9.60
2020,01,24,14,52,9.60
2020,01,24,14,53,9.60
2020,01,24,14,54,9.60
2020,01,24,14,55,9.60
2020,01,24,14,56,9.60
2020,01,24,14,57,9.60
2020,01,24,14,58,9.60
2020,01,24,14,59,9.60
2020,01,24,15,00,9.60
2020,01,24,15,01,9.60
2020,01,24,15,02,9.60
2020,01,24,15,03,9.60
2020,01,24,15,04,9.50
2020,01,24,15,05,9.50
2020,01,24,15,06,9.50
2020,01,24,15,07,9.50
2020,01,24,15,08,9.50
2020,01,24,15,09,9.50
2020,01,24,15,10,9.40
2020,01,24,15,11,9.50
2020,01,24,15,12,9.40
2020,01,24,15,13,9.40
2020,01,24,15,14,9.50
2020,01,24,15,15,9.40
2020,01,24,15,16,9.40
2020,01,24,15,17,9.40
2020,01,24,15,18,9.50
2020,01,24,15,19,9.50
2020,01,24,15,20,9.50
2020,01,24,15,21,9.50
2020,01,24,15,22,9.50
2020,01,24,15,23,9.50
2020,01,24,15,24,9.50
2020,01,24,15,25,9.50
2020,01,24,15,26,9.50
2020,01,24,15,27,9.50
2020,01,24,15,28,9.60
2020,01,24,15,29,9.60
2020,01,24,15,30,9.60
2020,01,24,15,31,9.60
2020,01,24,15,32,9.60
2020,01,24,15,33,9.60
2020,01,24,15,34,9.60
2020,01,24,15,35,9.60
2020,01,24,15,36,9.60
2020,01,24,15,37,9.60
2020,01,24,15,38,9.60
2020,01,24,15,39,9.60
2020,01,24,15,40,9.60
2020,01,24,15,41,9.60
2020,01,24,15,42,9.60
2020,01,24,15,43,9.60
2020,01,24,15,44,9.60
2020,01,24,15,45,9.60
2020,01,24,15,46,9.60
2020,01,24,15,47,9.60
2020,01,24,15,48,9.60
2020,01,24,15,49,9.60
2020,01,24,15,50,9.60
2020,01,24,15,51,9.60
2020,01,24,15,52,9.60
2020,01,24,15,53,9.60
2020,01,24,15,54,9.60
2020,01,24,15,55,9.60
2020,01,24,15,56,9.60
2020,01,24,15,57,9.60
2020,01,24,15,58,9.60
2020,01,24,15,59,9.60
2020,01,24,16,00,9.60
2020,01,24,16,01,9.60
2020,01,24,16,02,9.60
2020,01,24,16,03,9.60
2020,01,24,16,04,9.60
2020,01,24,16,05,9.60
2020,01,24,16,06,9.60
2020,01,24,16,07,9.50
2020,01,24,16,08,9.50
2020,01,24,16,09,9.50
2020,01,24,16,10,9.50
2020,01,24,16,11,9.50
2020,01,24,16,12,9.50
2020,01,24,16,13,9.40
2020,01,24,16,14,9.40
2020,01,24,16,15,9.40
2020,01,24,16,16,9.40
2020,01,24,16,17,9.40
2020,01,24,16,18,9.40
2020,01,24,16,19,9.40
2020,01,24,16,20,9.40
2020,01,24,16,21,9.40
2020,01,24,16,22,9.40
2020,01,24,16,23,9.40
2020,01,24,16,24,9.40
2020,01,24,16,25,9.40
2020,01,24,16,26,9.40
2020,01,24,16,27,9.40
2020,01,24,16,28,9.40
2020,01,24,16,29,9.40
2020,01,24,16,30,9.40
2020,01,24,16,31,9.30
2020,01,24,16,32,9.30
2020,01,24,16,33,9.30
2020,01,24,16,34,9.30
2020,01,24,16,35,9.30
2020,01,24,16,36,9.30
2020,01,24,16,37,9.30
2020,01,24,16,38,9.30
2020,01,24,16,39,9.30
2020,01,24,16,40,9.30
2020,01,24,16,41,9.30
2020,01,24,16,42,9.30
2020,01,24,16,43,9.30
2020,01,24,16,44,9.30
2020,01,24,16,45,9.20
2020,01,24,16,46,9.20
2020,01,24,16,47,9.20
2020,01,24,16,48,9.20
2020,01,24,16,49,9.20
2020,01,24,16,50,9.20
2020,01,24,16,51,9.20
2020,01,24,16,52,9.20
2020,01,24,16,53,9.20
2020,01,24,16,54,9.20
2020,01,24,16,55,9.20
2020,01,24,16,56,9.10
2020,01,24,16,57,9.10
2020,01,24,16,58,9.10
2020,01,24,16,59,9.10
2020,01,24,17,00,9.10
2020,01,24,17,01,9.10
2020,01,24,17,02,9.10
2020,01,24,17,03,9.10
2020,01,24,17,04,9.10
2020,01,24,17,05,9.10
2020,01,24,17,06,9.10
2020,01,24,17,07,9.10
2020,01,24,17,08,9.10
2020,01,24,17,09,9.10
2020,01,24,17,10,9.10
2020,01,24,17,11,9.10
2020,01,24,17,12,9.10
2020,01,24,17,13,9.10
2020,01,24,17,14,9.10
2020,01,24,17,15,9.10
2020,01,24,17,16,9.20
2020,01,24,17,17,9.20
2020,01,24,17,18,9.20
2020,01,24,17,19,9.20
2020,01,24,17,20,9.20
2020,01,24,17,21,9.20
2020,01,24,17,22,9.20
2020,01,24,17,23,9.20
2020,01,24,17,24,9.20
2020,01,24,17,25,9.20
2020,01,24,17,26,9.20
2020,01,24,17,27,9.20
2020,01,24,17,28,9.20
2020,01,24,17,29,9.20
2020,01,24,17,30,9.20
2020,01,24,17,31,9.20
2020,01,24,17,32,9.20
2020,01,24,17,33,9.20
2020,01,24,17,34,9.20
2020,01,24,17,35,9.20
2020,01,24,17,36,9.20
2020,01,24,17,37,9.20
2020,01,24,17,38,9.20
2020,01,24,17,39,9.20
2020,01,24,17,40,9.20
2020,01,24,17,41,9.20
2020,01,24,17,42,9.20
2020,01,24,17,43,9.20
2020,01,24,17,44,9.20
2020,01,24,17,45,9.20
2020,01,24,17,46,9.20
2020,01,24,17,47,9.20
2020,01,24,17,48,9.20
2020,01,24,17,49,9.20
2020,01,24,17,50,9.20
2020,01,24,17,51,9.20
2020,01,24,17,52,9.30
2020,01,24,17,53,9.30
2020,01,24,17,54,9.30
2020,01,24,17,55,9.30
2020,01,24,17,56,9.30
2020,01,24,17,57,9.30
2020,01,24,17,58,9.30
2020,01,24,17,59,9.30
2020,01,24,18,00,9.30
2020,01,24,18,01,9.30
2020,01,24,18,02,9.30
2020,01,24,18,03,9.30
2020,01,24,18,04,9.30
2020,01,24,18,05,9.30
2020,01,24,18,06,9.30
2020,01,24,18,07,9.30
2020,01,24,18,08,9.30
2020,01,24,18,09,9.30
2020,01,24,18,10,9.30
2020,01,24,18,11,9.30
2020,01,24,18,12,9.30
2020,01,24,18,13,9.20
2020,01,24,18,14,9.20
2020,01,24,18,15,9.20
2020,01,24,18,16,9.20
2020,01,24,18,17,9.20
2020,01,24,18,18,9.20
2020,01,24,18,19,9.20
2020,01,24,18,20,9.20
2020,01,24,18,21,9.20
2020,01,24,18,22,9.20
2020,01,24,18,23,9.20
2020,01,24,18,24,9.20
2020,01,24,18,25,9.20
2020,01,24,18,26,9.20
2020,01,24,18,27,9.20
2020,01,24,18,28,9.20
2020,01,24,18,29,9.20
2020,01,24,18,30,9.20
2020,01,24,18,31,9.20
2020,01,24,18,32,9.20
2020,01,24,18,33,9.20
2020,01,24,18,34,9.20
2020,01,24,18,35,9.20
2020,01,24,18,36,9.20
2020,01,24,18,37,9.20
2020,01,24,18,38,9.20
2020,01,24,18,39,9.20
2020,01,24,18,40,9.20
2020,01,24,18,41,9.20
2020,01,24,18,42,9.20
2020,01,24,18,43,9.20
2020,01,24,18,44,9.20
2020,01,24,18,45,9.20
2020,01,24,18,46,9.20
2020,01,24,18,47,9.10
2020,01,24,18,48,9.10
2020,01,24,18,49,9.10
2020,01,24,18,50,9.10
2020,01,24,18,51,9.10
2020,01,24,18,52,9.10
2020,01,24,18,53,9.10
2020,01,24,18,54,9.10
2020,01,24,18,55,9.10
2020,01,24,18,56,9.10
2020,01,24,18,57,9.10
2020,01,24,18,58,9.10
2020,01,24,18,59,9.10
2020,01,24,19,00,9.10
2020,01,24,19,01,9.10
2020,01,24,19,02,9.10
2020,01,24,19,03,9.10
2020,01,24,19,04,9.10
2020,01,24,19,05,9.10
2020,01,24,19,06,9.10
2020,01,24,19,07,9.10
2020,01,24,19,08,9.10
2020,01,24,19,09,9.10
2020,01,24,19,10,9.10
2020,01,24,19,11,9.10
2020,01,24,19,12,9.10
2020,01,24,19,13,9.10
2020,01,24,19,14,9.10
2020,01,24,19,15,9.10
2020,01,24,19,16,9.10
2020,01,24,19,17,9.10
2020,01,24,19,18,9.00
2020,01,24,19,19,9.00
2020,01,24,19,20,9.00
2020,01,24,19,21,9.00
2020,01,24,19,22,9.00
2020,01,24,19,23,8.90
2020,01,24,19,24,8.90
2020,01,24,19,25,8.90
2020,01,24,19,26,8.90
2020,01,24,19,27,8.90
2020,01,24,19,28,8.90
2020,01,24,19,29,8.90
2020,01,24,19,30,8.90
2020,01,24,19,31,8.80
2020,01,24,19,32,8.80
2020,01,24,19,33,8.80
2020,01,24,19,34,8.80
2020,01,24,19,35,8.80
2020,01,24,19,36,8.80
2020,01,24,19,37,8.80
2020,01,24,19,38,8.80
2020,01,24,19,39,8.80
2020,01,24,19,40,8.80
2020,01,24,19,41,8.80
2020,01,24,19,42,8.80
2020,01,24,19,43,8.80
2020,01,24,19,44,8.70
2020,01,24,19,45,8.70
2020,01,24,19,46,8.70
2020,01,24,19,47,8.70
2020,01,24,19,48,8.70
2020,01,24,19,49,8.60
2020,01,24,19,50,8.60
2020,01,24,19,51,8.60
2020,01,24,19,52,8.60
2020,01,24,19,53,8.60
2020,01,24,19,54,8.50
2020,01,24,19,55,8.50
2020,01,24,19,56,8.50
2020,01,24,19,57,8.40
2020,01,24,19,58,8.40
2020,01,24,19,59,8.40
2020,01,24,20,00,8.40
2020,01,24,20,01,8.40
2020,01,24,20,02,8.40
2020,01,24,20,03,8.30
2020,01,24,20,04,8.30
2020,01,24,20,05,8.30
2020,01,24,20,06,8.30
2020,01,24,20,07,8.30
2020,01,24,20,08,8.30
2020,01,24,20,09,8.30
2020,01,24,20,10,8.20
2020,01,24,20,11,8.20
2020,01,24,20,12,8.20
2020,01,24,20,13,8.20
2020,01,24,20,14,8.10
2020,01,24,20,15,8.10
2020,01,24,20,16,8.10
2020,01,24,20,17,8.10
2020,01,24,20,18,8.00
2020,01,24,20,19,8.00
2020,01,24,20,20,8.00
2020,01,24,20,21,7.90
2020,01,24,20,22,7.90
2020,01,24,20,23,7.90
2020,01,24,20,24,7.80
2020,01,24,20,25,7.80
2020,01,24,20,26,7.80
2020,01,24,20,27,7.80
2020,01,24,20,28,7.70
2020,01,24,20,29,7.70
2020,01,24,20,30,7.70
2020,01,24,20,31,7.60
2020,01,24,20,32,7.60
2020,01,24,20,33,7.60
2020,01,24,20,34,7.50
2020,01,24,20,35,7.50
2020,01,24,20,36,7.40
2020,01,24,20,37,7.40
2020,01,24,20,38,7.40
2020,01,24,20,39,7.30
2020,01,24,20,40,7.30
2020,01,24,20,41,7.30
2020,01,24,20,42,7.20
2020,01,24,20,43,7.20
2020,01,24,20,44,7.20
2020,01,24,20,45,7.20
2020,01,24,20,46,7.20
2020,01,24,20,47,7.20
2020,01,24,20,48,7.20
2020,01,24,20,49,7.20
2020,01,24,20,50,7.20
2020,01,24,20,51,7.10
2020,01,24,20,52,7.10
2020,01,24,20,53,7.10
2020,01,24,20,54,7.10
2020,01,24,20,55,7.10
2020,01,24,20,56,7.00
2020,01,24,20,57,7.00
2020,01,24,20,58,6.90
2020,01,24,20,59,6.90
2020,01,24,21,00,6.90
2020,01,24,21,01,6.90
2020,01,24,21,02,6.80
2020,01,24,21,03,6.80
2020,01,24,21,04,6.80
2020,01,24,21,05,6.80
2020,01,24,21,06,6.80
2020,01,24,21,07,6.70
2020,01,24,21,08,6.70
2020,01,24,21,09,6.70
2020,01,24,21,10,6.70
2020,01,24,21,11,6.70
2020,01,24,21,12,6.70
2020,01,24,21,13,6.70
2020,01,24,21,14,6.70
2020,01,24,21,15,6.60
2020,01,24,21,16,6.60
2020,01,24,21,17,6.60
2020,01,24,21,18,6.60
2020,01,24,21,19,6.60
2020,01,24,21,20,6.60
2020,01,24,21,21,6.60
2020,01,24,21,22,6.60
2020,01,24,21,23,6.50
2020,01,24,21,24,6.50
2020,01,24,21,25,6.50
2020,01,24,21,26,6.50
2020,01,24,21,27,6.50
2020,01,24,21,28,6.50
2020,01,24,21,29,6.50
2020,01,24,21,30,6.40
2020,01,24,21,31,6.40
2020,01,24,21,32,6.40
2020,01,24,21,33,6.40
2020,01,24,21,34,6.40
2020,01,24,21,35,6.40
2020,01,24,21,36,6.40
2020,01,24,21,37,6.40
2020,01,24,21,38,6.50
2020,01,24,21,39,6.50
2020,01,24,21,40,6.50
2020,01,24,21,41,6.60
2020,01,24,21,42,6.60
2020,01,24,21,43,6.60
2020,01,24,21,44,6.60
2020,01,24,21,45,6.60
2020,01,24,21,46,6.70
2020,01,24,21,47,6.70
2020,01,24,21,48,6.70
2020,01,24,21,49,6.70
2020,01,24,21,50,6.70
2020,01,24,21,51,6.70
2020,01,24,21,52,6.70
2020,01,24,21,53,6.70
2020,01,24,21,54,6.70
2020,01,24,21,55,6.70
2020,01,24,21,56,6.70
2020,01,24,21,57,6.70
2020,01,24,21,58,6.70
2020,01,24,21,59,6.70
2020,01,24,22,00,6.70
2020,01,24,22,01,6.70
2020,01,24,22,02,6.70
2020,01,24,22,03,6.70
2020,01,24,22,04,6.70
2020,01,24,22,05,6.70
2020,01,24,22,06,6.70
2020,01,24,22,07,6.70
2020,01,24,22,08,6.70
2020,01,24,22,09,6.70
2020,01,24,22,10,6.70
2020,01,24,22,11,6.70
2020,01,24,22,12,6.70
2020,01,24,22,13,6.70
2020,01,24,22,14,6.70
2020,01,24,22,15,6.70
2020,01,24,22,16,6.70
2020,01,24,22,17,6.70
2020,01,24,22,18,6.70
2020,01,24,22,19,6.70
2020,01,24,22,20,6.70
2020,01,24,22,21,6.70
2020,01,24,22,22,6.70
2020,01,24,22,23,6.70
2020,01,24,22,24,6.70
2020,01,24,22,25,6.70
2020,01,24,22,26,6.70
2020,01,24,22,27,6.80
2020,01,24,22,28,6.80
2020,01,24,22,29,6.80
2020,01,24,22,30,6.80
2020,01,24,22,31,6.80
2020,01,24,22,32,6.80
2020,01,24,22,33,6.80
2020,01,24,22,34,6.80
2020,01,24,22,35,6.80
2020,01,24,22,36,6.80
2020,01,24,22,37,6.80
2020,01,24,22,38,6.80
2020,01,24,22,39,6.80
2020,01,24,22,40,6.80
2020,01,24,22,41,6.80
2020,01,24,22,42,6.80
2020,01,24,22,43,6.80
2020,01,24,22,44,6.80
2020,01,24,22,45,6.80
2020,01,24,22,46,6.80
2020,01,24,22,47,6.80
2020,01,24,22,48,6.80
2020,01,24,22,49,6.80
2020,01,24,22,50,6.80
2020,01,24,22,51,6.80
2020,01,24,22,52,6.80
2020,01,24,22,53,6.80
2020,01,24,22,54,6.80
2020,01,24,22,55,6.80
2020,01,24,22,56,6.80
2020,01,24,22,57,6.80
2020,01,24,22,58,6.80
2020,01,24,22,59,6.80
2020,01,24,23,00,6.80
2020,01,24,23,01,6.80
2020,01,24,23,02,6.80
2020,01,24,23,03,6.80
2020,01,24,23,04,6.90
2020,01,24,23,05,6.90
2020,01,24,23,06,6.90
2020,01,24,23,07,6.90
2020,01,24,23,08,6.90
2020,01,24,23,09,6.90
2020,01,24,23,10,7.00
2020,01,24,23,11,6.90
2020,01,24,23,12,6.90
2020,01,24,23,13,6.90
2020,01,24,23,14,6.90
2020,01,24,23,15,6.90
2020,01,24,23,16,6.90
2020,01,24,23,17,6.90
2020,01,24,23,18,6.90
2020,01,24,23,19,6.90
2020,01,24,23,20,6.90
2020,01,24,23,21,6.90
2020,01,24,23,22,6.90
2020,01,24,23,23,6.90
2020,01,24,23,24,7.00
2020,01,24,23,25,7.00
2020,01,24,23,26,7.00
2020,01,24,23,27,7.10
2020,01,24,23,28,7.10
2020,01,24,23,29,7.10
2020,01,24,23,30,7.10
2020,01,24,23,31,7.10
2020,01,24,23,32,7.10
2020,01,24,23,33,7.10
2020,01,24,23,34,7.10
2020,01,24,23,35,7.20
2020,01,24,23,36,7.20
2020,01,24,23,37,7.20
2020,01,24,23,38,7.20
2020,01,24,23,39,7.20
2020,01,24,23,40,7.20
2020,01,24,23,41,7.20
2020,01,24,23,42,7.20
2020,01,24,23,43,7.20
2020,01,24,23,44,7.20
2020,01,24,23,45,7.20
2020,01,24,23,46,7.20
2020,01,24,23,47,7.20
2020,01,24,23,48,7.20
2020,01,24,23,49,7.20
2020,01,24,23,50,7.20
2020,01,24,23,51,7.20
2020,01,24,23,52,7.20
2020,01,24,23,53,7.20
2020,01,24,23,54,7.20
2020,01,24,23,55,7.20
2020,01,24,23,56,7.20
2020,01,24,23,57,7.20
2020,01,24,23,58,7.20
2020,01,24,23,59,7.20
